x

Superior Grand Traverse Bay, Mi (gtrm4) Weather Station

9:00am - Mon 30th May 2016 All times are CDT. -5 hours from GMT.

  • Wind
    10mph, 17mph gusts
  • Air Temp 66°f
  • Sea Pressure 1013.2mb
  • Superior Grand Traverse Bay, Mi
  • Superior Grand Traverse Bay, Mi

More Historic Weather Station data

Upgrade to MSW Pro to gain access to the past 30 days of data for over 8000 Wavebouys and Weather Stations around the globe.

Join Pro

Comparision Forecast

View Surf forecast
   
Mon 05/30 9:00am 10 17 mph 1013.2mb 66f
8:50am 9 15 mph 1013.2mb 65f
8:40am 8 14 mph 1013.2mb 65f
8:30am 10 15 mph 1013.2mb 64f
8:20am 10 16 mph 1013.2mb 64f
8:10am 13 15 mph 1012.9mb 63f
8:00am 9 15 mph 1012.9mb 63f
7:50am 9 17 mph 1012.5mb 62f
7:40am 9 16 mph 1012.5mb 61f
7:30am 10 14 mph 1012.5mb 60f
7:20am 9 14 mph 1012.5mb 60f
7:10am 9 13 mph 1012.2mb 59f
7:00am 7 14 mph 1012.2mb 59f
6:50am 7 10 mph 1012.5mb 58f
6:40am 7 13 mph 1012.2mb 58f
6:30am 8 13 mph 1012.2mb 58f
6:20am 3 9 mph 1012.2mb 57f
6:10am 6 11 mph 1012.2mb 57f
6:00am 5 8 mph 1012.2mb 56f
5:50am 5 7 mph 1012.2mb 56f
5:40am 5 8 mph 1012.2mb 56f
5:30am 5 8 mph 1011.9mb 55f
5:20am 5 9 mph 1011.9mb 55f
5:10am 3 6 mph 1011.9mb 54f
5:00am 3 6 mph 1011.5mb 55f
4:50am 3 8 mph 1011.9mb 55f
4:40am 5 7 mph 1011.9mb 54f
4:30am 5 7 mph 1011.9mb 54f
4:20am 3 5 mph 1011.9mb 54f
4:10am 3 6 mph 1011.9mb 54f
4:00am 5 6 mph 1011.9mb 55f
3:50am 5 7 mph 1011.5mb 55f
3:40am 5 8 mph 1011.5mb 55f
3:30am 5 8 mph 1011.5mb 55f
3:20am 3 7 mph 1011.5mb 55f
3:10am 5 8 mph 1011.9mb 55f
3:00am 6 9 mph 1011.5mb 55f
2:50am 5 9 mph 1011.5mb 55f
2:40am 6 8 mph 1011.5mb 55f
2:30am 6 9 mph 1011.5mb 56f
2:20am 6 8 mph 1011.5mb 56f
2:10am 6 8 mph 1011.5mb 56f
2:00am 6 8 mph 1011.5mb 56f
1:50am 6 7 mph 1011.5mb 56f
1:40am 5 7 mph 1011.5mb 57f
1:30am 3 7 mph 1011.5mb 57f
1:20am 3 6 mph 1011.5mb 58f
1:10am 5 7 mph 1011.5mb 58f
1:00am 5 8 mph 1011.5mb 58f
12:50am 6 11 mph 1011.2mb 58f
12:40am 8 11 mph 1011.2mb 58f
12:30am 8 11 mph 1011.2mb 58f
12:20am 7 13 mph 1011.2mb 58f
12:10am 7 10 mph 1011.2mb 59f
12:00am 6 10 mph 1011.2mb 58f
Sun 05/29 11:50pm 5 10 mph 1011.2mb 58f
11:40pm 6 9 mph 1010.8mb 58f
11:30pm 6 9 mph 1010.8mb 58f
11:20pm 5 7 mph 1010.8mb 57f
11:10pm 5 6 mph 1010.8mb 57f
11:00pm 3 7 mph 1010.8mb 58f
10:50pm 5 7 mph 1010.8mb 58f
10:40pm 5 10 mph 1010.8mb 58f
10:30pm 6 10 mph 1010.8mb 58f
10:20pm 7 14 mph 1010.8mb 58f
10:10pm 8 13 mph 1010.8mb 58f
10:00pm 9 16 mph 1010.8mb 59f
9:50pm 9 14 mph 1010.5mb 59f
9:40pm 9 14 mph 1010.5mb 59f
9:30pm 9 15 mph 1010.5mb 59f
9:20pm 10 16 mph 1010.5mb 60f
9:10pm 10 16 mph 1010.5mb 60f
9:00pm 9 16 mph 1010.5mb 60f
8:50pm 10 17 mph 1010.2mb 61f
8:40pm 9 17 mph 1009.8mb 61f
8:30pm 10 22 mph 1009.8mb 62f
8:20pm 14 23 mph 1009.5mb 62f
8:10pm 14 25 mph 1009.5mb 62f
8:00pm 11 24 mph 1009.5mb 62f
7:50pm 14 20 mph 1009.5mb 62f
7:40pm 10 23 mph 1009.5mb 63f
7:30pm 9 22 mph 1009.5mb 63f
7:20pm 11 18 mph 1009.1mb 63f
7:10pm 14 21 mph 1009.1mb 63f
7:00pm 10 21 mph 1009.1mb 64f
6:50pm 10 23 mph 1009.1mb 64f
6:40pm 14 25 mph 1008.8mb 64f
6:30pm 14 25 mph 1008.8mb 63f
6:20pm 15 26 mph 1008.8mb 64f
6:10pm 13 22 mph 1008.8mb 64f
6:00pm 13 23 mph 1008.8mb 65f
5:50pm 15 25 mph 1008.8mb 65f
5:40pm 16 23 mph 1008.5mb 65f
5:30pm 11 24 mph 1008.8mb 65f
5:20pm 11 20 mph 1008.8mb 66f
5:10pm 11 22 mph 1008.8mb 66f
5:00pm 14 23 mph 1008.8mb 66f
4:50pm 15 21 mph 1008.5mb 67f
4:40pm 11 20 mph 1008.5mb 67f
4:30pm 13 23 mph 1008.5mb 68f
4:20pm 10 20 mph 1008.8mb 65f
4:10pm 10 22 mph 1008.8mb 65f
4:00pm 10 16 mph 1008.8mb 65f
3:50pm 10 21 mph 1008.8mb 67f
3:40pm 9 22 mph 1008.5mb 67f
3:30pm 8 15 mph 1008.5mb 68f
3:20pm 11 20 mph 1008.5mb 67f
3:10pm 9 20 mph 1008.5mb 68f
3:00pm 9 18 mph 1008.5mb 69f
2:50pm 14 21 mph 1008.5mb 68f
2:40pm 9 18 mph 1008.5mb 67f
2:30pm 14 20 mph 1008.5mb 67f
2:20pm 14 21 mph 1008.5mb 67f
2:10pm 11 18 mph 1008.5mb 67f
2:00pm 11 17 mph 1008.5mb -
1:50pm 9 17 mph 1008.5mb -
1:40pm 9 14 mph 1008.5mb -
1:30pm 9 16 mph 1008.5mb -
1:20pm 9 20 mph 1008.5mb -
1:10pm 7 14 mph 1008.5mb -
1:00pm 9 17 mph 1008.5mb -
12:50pm 9 15 mph 1008.5mb -
12:40pm 7 17 mph 1008.5mb -
12:30pm 15 21 mph 1008.5mb -
12:20pm 7 14 mph 1008.5mb -
12:10pm 1 5 mph 1008.5mb 54f
12:00pm  -  2 mph 1008.5mb 55f
11:50am 1 5 mph 1008.1mb 52f
11:40am 3 5 mph 1008.1mb 51f
11:30am 2 7 mph 1008.1mb 52f
11:20am 6 7 mph 1008.5mb 50f
11:10am 5 6 mph 1008.5mb 50f
11:00am 5 6 mph 1008.5mb 51f
10:50am 5
mph
1008.5mb 51f
10:40am 3
mph
1008.5mb 52f
10:30am 1 3 mph 1008.5mb 51f
10:20am 3
mph
1008.8mb 50f
10:10am 2 3 mph 1008.8mb 49f
10:00am 2 3 mph 1008.8mb 50f
9:50am 3
mph
1008.8mb 50f
9:40am 3
mph
1008.8mb 50f
9:30am 2 3 mph 1008.8mb 51f
9:20am 2 3 mph 1008.8mb 51f
9:10am 2 3 mph 1008.8mb 51f
9:00am 2 3 mph 1008.8mb 50f
8:50am 2
mph
1009.1mb 51f
8:40am 1 2 mph 1009.1mb 51f
8:30am 1 2 mph 1008.8mb 51f
8:20am 3
mph
1008.8mb 50f
8:10am 2
mph
1008.8mb 51f
8:00am  -  1 mph 1008.8mb 52f
7:50am  -  2 mph 1008.8mb 51f
7:40am  -  1 mph 1008.8mb 50f
7:30am  -  2 mph 1008.5mb 50f
7:20am 2 3 mph 1008.5mb 50f
7:10am 2 6 mph 1008.5mb 50f
7:00am 5 6 mph 1008.5mb 50f
6:50am 5 7 mph 1008.5mb 49f
6:40am 6 8 mph 1008.5mb 49f
6:30am 7 9 mph 1008.5mb 49f
6:20am 9 10 mph 1008.5mb 49f
6:10am 8 10 mph 1008.5mb 48f
6:00am 9 10 mph 1008.1mb 48f
5:50am 8 10 mph 1008.1mb 48f
5:40am 10
mph
1008.5mb 47f
5:30am 8 11 mph 1008.5mb 47f
5:20am 9 13 mph 1008.5mb 48f
5:10am 3 6 mph 1008.1mb 51f
5:00am  -  5 mph 1008.1mb 52f
4:50am 5 6 mph 1007.8mb 52f
4:40am 6
mph
1007.8mb 52f
4:30am 5 6 mph 1007.8mb 52f
4:20am 2
mph
1007.8mb 52f
4:10am  -  3 mph 1008.1mb 51f
4:00am 2
mph
1008.1mb 53f
3:50am  -  1 mph 1008.1mb 53f
3:40am  -  mph 1008.1mb 53f
3:30am  -  2 mph 1008.5mb 52f
3:20am 3 7 mph 1008.5mb 51f
3:10am 3 6 mph 1008.5mb 51f
3:00am 3 7 mph 1008.5mb 52f
2:50am 7 8 mph 1008.1mb 53f
2:40am 6 7 mph 1008.5mb 54f
2:30am 3
mph
1008.5mb 55f
2:20am  -  3 mph 1008.8mb 57f
2:10am 2 8 mph 1009.1mb 57f
2:00am 7 9 mph 1008.8mb 56f
1:50am 6 10 mph 1009.5mb 55f
1:40am 6 7 mph 1009.5mb 54f
1:30am 3 5 mph 1009.1mb 55f
1:20am 2 5 mph 1009.5mb 55f
1:10am 1 5 mph 1009.8mb 54f
1:00am 3 7 mph 1009.8mb 52f
12:50am 6 7 mph 1009.8mb 52f
12:40am 6 9 mph 1009.8mb 51f
12:30am 8 10 mph 1009.5mb 50f
12:20am  -  mph 1009.5mb 56f
12:10am  -  mph 1009.5mb 57f
12:00am  -  1 mph 1009.5mb 56f
Sat 05/28 11:50pm  -  3 mph 1009.5mb 57f
11:40pm 2 3 mph 1009.1mb 57f
11:30pm  -  1 mph 1009.5mb 56f
11:20pm  -  2 mph 1009.5mb 57f
11:10pm  -  3 mph 1009.5mb 57f
11:00pm 2 5 mph 1009.5mb 57f
10:50pm 2
mph
1009.5mb 56f
10:40pm  -  2 mph 1009.5mb 55f
10:30pm 1 2 mph 1009.1mb 55f
10:20pm 1 2 mph 1009.1mb 55f
10:10pm  -  2 mph 1009.1mb 55f
10:00pm  -  5 mph 1009.1mb 54f
9:50pm 3
mph
1008.8mb 54f
9:40pm 3
mph
1009.1mb 54f
9:30pm  -  5 mph 1009.1mb 53f
9:20pm 3 5 mph 1009.1mb 53f
9:10pm  -  2 mph 1009.1mb 52f
9:00pm  -  2 mph 1008.8mb 51f
8:50pm  -  2 mph 1008.8mb 51f
8:40pm 1 5 mph 1008.8mb 51f
8:30pm 1 3 mph 1008.5mb 51f
8:20pm  -  3 mph 1008.5mb -
8:10pm 2 7 mph 1008.5mb -
8:00pm 1 7 mph 1008.5mb -
7:50pm 2 5 mph 1008.5mb -
7:40pm 2 7 mph 1008.1mb -
7:30pm 5 10 mph 1008.1mb -
7:20pm  -  6 mph 1008.1mb -
7:10pm  -  7 mph 1008.1mb -
7:00pm 5 14 mph 1008.1mb -
6:50pm 8 9 mph 1007.8mb -
6:40pm 6 7 mph 1007.8mb -
6:30pm 3 6 mph 1007.8mb 67f
6:20pm 5 7 mph 1007.8mb 67f
6:10pm 3 7 mph 1007.5mb 65f
6:00pm 7
mph
1007.5mb 60f
5:50pm 5 7 mph 1007.5mb 61f
5:40pm 3 5 mph 1007.8mb 59f
5:30pm 2 6 mph 1007.8mb 61f
5:20pm 2 6 mph 1008.1mb 60f
5:10pm  -  3 mph 1008.1mb 58f
5:00pm 5 8 mph 1008.1mb 57f
4:50pm 3 14 mph 1008.1mb 58f
4:40pm 15 16 mph 1007.8mb 55f
4:30pm 3 5 mph 1008.1mb 56f
4:20pm 2 5 mph 1008.1mb 57f
4:10pm  -  9 mph 1008.1mb 56f
4:00pm 7 9 mph 1008.1mb 56f
3:50pm 5 7 mph 1008.1mb 55f
3:40pm 5 6 mph 1008.1mb 54f
3:30pm  -  6 mph 1008.5mb 54f
3:20pm 6 8 mph 1008.1mb 54f
3:10pm 7 8 mph 1008.1mb 55f
3:00pm 3 5 mph 1008.1mb 55f
2:50pm 5 7 mph 1008.5mb 54f
2:40pm 7 9 mph 1008.5mb 54f
2:30pm 3 8 mph 1008.5mb 53f
2:20pm 7 8 mph 1008.5mb 54f
2:10pm 6 7 mph 1008.5mb 54f
2:00pm 6 8 mph 1008.8mb 54f
1:50pm 8
mph
1008.8mb 53f
1:40pm 8 10 mph 1008.8mb 53f
1:30pm 9
mph
1008.8mb 53f
1:20pm 8 9 mph 1008.8mb 53f
1:10pm 9 10 mph 1009.1mb 53f
1:00pm 8 9 mph 1009.1mb 52f
12:50pm 7 9 mph 1009.1mb 50f
12:40pm 7 9 mph 1009.5mb 50f
12:30pm 8 15 mph 1009.5mb 49f
12:20pm 11 14 mph 1009.1mb 49f
12:10pm 2 5 mph 1009.1mb 51f
12:00pm 2 9 mph 1009.1mb 51f
11:50am 3 6 mph 1008.8mb 53f
11:40am 3 5 mph 1009.1mb 51f
11:30am 3
mph
1009.1mb 51f
11:20am 2 3 mph 1009.5mb 49f
11:10am 2 5 mph 1009.5mb 49f
11:00am 2 6 mph 1009.5mb 49f
10:50am 3 5 mph 1009.5mb 49f
10:40am 1 3 mph 1009.5mb 50f
10:30am 3 6 mph 1009.5mb 50f
10:20am 2 8 mph 1009.5mb 50f
10:10am 3 8 mph 1009.5mb 50f
10:00am 2 5 mph 1009.1mb 50f
9:50am 2 3 mph 1009.5mb 49f
9:40am  -  3 mph 1009.5mb 49f
9:30am 2 3 mph 1009.5mb 49f
9:20am 2 5 mph 1009.8mb 49f
9:10am 5
mph
1009.5mb 49f
9:00am  -  2 mph 1009.5mb 50f
8:50am  -  1 mph 1009.1mb 50f
8:40am  -  1 mph 1009.5mb 49f
8:30am  -  mph 1009.5mb 48f
8:20am  -  3 mph 1009.5mb 47f
8:10am 2 3 mph 1009.5mb 48f
8:00am 1 2 mph 1009.1mb 48f
7:50am 1 2 mph 1009.5mb 49f
7:40am 1 5 mph 1009.5mb 49f
7:30am 3 6 mph 1009.5mb 49f
7:20am 2
mph
1009.1mb 50f
7:10am 2 3 mph 1009.1mb 50f
7:00am 3 7 mph 1009.1mb 50f
6:50am 5 6 mph 1009.1mb 49f
6:40am 5 7 mph 1009.1mb 49f
6:30am 6 8 mph 1009.5mb 48f
6:20am 7 9 mph 1009.5mb 49f
6:10am 8 10 mph 1009.5mb 49f
6:00am 8 9 mph 1009.5mb 49f
5:50am 8 9 mph 1009.5mb 50f
5:40am 7 8 mph 1009.5mb 50f
5:30am 5 8 mph 1009.5mb 50f
5:20am 7 9 mph 1009.5mb 50f
5:10am 7 8 mph 1009.5mb 50f
5:00am 7 11 mph 1009.5mb 50f
4:50am 8 10 mph 1009.1mb 49f
4:40am 7 9 mph 1009.5mb 49f
4:30am 7 8 mph 1009.5mb 49f
4:20am 7 8 mph 1009.5mb 50f
4:10am 6 7 mph 1009.5mb 50f
4:00am 7 9 mph 1009.5mb 50f
3:50am 8 11 mph 1009.5mb 50f
3:40am 10 11 mph 1009.1mb 50f
3:30am 8 9 mph 1009.5mb 50f
3:20am 8 9 mph 1009.5mb 49f
3:10am 7 9 mph 1009.5mb 49f
3:00am 8 9 mph 1009.5mb 49f
2:50am 7 10 mph 1009.8mb 49f
2:40am 7 10 mph 1009.8mb 49f
2:30am 7 9 mph 1010.2mb 49f
2:20am 7 9 mph 1010.5mb 49f
2:10am 8 13 mph 1010.5mb 49f
2:00am 10 11 mph 1010.2mb 49f
1:50am 11 13 mph 1010.2mb 49f
1:40am 11 15 mph 1010.2mb 50f
1:30am 11 15 mph 1010.2mb 50f
1:20am 11 15 mph 1010.2mb 50f
1:10am 13 15 mph 1010.2mb 50f
1:00am 13 15 mph 1010.2mb 49f
12:50am 13 15 mph 1010.5mb 49f
12:40am 10 13 mph 1010.5mb 48f
12:30am 10 13 mph 1010.5mb 48f
12:20am 10 14 mph 1010.8mb 49f
12:10am 13 15 mph 1010.8mb 50f
12:00am 14 16 mph 1010.8mb 51f
Fri 05/27 11:50pm 10 13 mph 1010.8mb 51f
11:40pm 9 13 mph 1010.8mb 51f
11:30pm 10 14 mph 1010.8mb 52f
11:20pm 13 15 mph 1011.2mb 51f
11:10pm 11 15 mph 1011.2mb 51f
11:00pm 13 17 mph 1011.2mb 51f
10:50pm 15 17 mph 1010.8mb 51f
10:40pm 15 24 mph 1011.2mb 51f
10:30pm 16 20 mph 1011.2mb 50f
10:20pm 17 21 mph 1011.2mb 50f
10:10pm 16 18 mph 1011.5mb 49f
10:00pm 16 18 mph 1011.9mb 49f
9:50pm 16 22 mph 1011.9mb 50f
9:40pm 16 18 mph 1011.9mb 50f
9:30pm 13 16 mph 1011.9mb 50f
9:20pm 13 16 mph 1012.2mb 49f
9:10pm 13 15 mph 1011.9mb 50f
9:00pm 9 13 mph 1011.9mb 50f
8:50pm 9 11 mph 1011.9mb 49f
8:40pm 10 13 mph 1011.9mb 49f
8:30pm 10 14 mph 1011.5mb 49f
8:20pm 13 15 mph 1011.9mb 48f
8:10pm 13 15 mph 1011.9mb 49f
8:00pm 13 15 mph 1011.9mb 48f
7:50pm 11 14 mph 1011.9mb 48f
7:40pm 10 11 mph 1012.2mb 48f
7:30pm 10 14 mph 1011.9mb 48f
7:20pm 11 16 mph 1012.2mb 48f
7:10pm 15 16 mph 1012.2mb 48f
7:00pm 13 14 mph 1012.2mb 47f
6:50pm 14
mph
1012.2mb 47f
6:40pm 13 14 mph 1012.5mb 47f
6:30pm 13 14 mph 1012.2mb 47f
6:20pm 10 15 mph 1012.5mb 47f
6:10pm 13 15 mph 1012.2mb 47f
6:00pm 13 15 mph 1011.9mb 48f
5:50pm 10 11 mph 1011.9mb 48f
5:40pm 9 10 mph 1011.9mb 48f
5:30pm 9 11 mph 1012.2mb 49f
5:20pm 9 11 mph 1012.2mb 50f
5:10pm 10 13 mph 1012.2mb 49f
5:00pm 10 11 mph 1012.2mb 49f
4:50pm 9 11 mph 1012.2mb 48f
4:40pm 10 14 mph 1012.5mb 47f
4:30pm 10 13 mph 1012.5mb 47f
4:20pm 11 13 mph 1012.9mb 46f
4:10pm 9 13 mph 1012.9mb 46f
4:00pm 10 11 mph 1012.9mb 46f
3:50pm 9 11 mph 1013.5mb 45f
3:40pm 5 8 mph 1013.5mb 45f
3:30pm 5 10 mph 1013.5mb 45f
3:20pm 3 14 mph 1013.5mb 45f
3:10pm 15 21 mph 1013.9mb 46f
3:00pm 6 13 mph 1013.5mb 48f
2:50pm 7 8 mph 1013.2mb 47f
2:40pm 6 8 mph 1013.5mb 46f
2:30pm 7 9 mph 1013.2mb 45f
2:20pm 7 8 mph 1013.2mb 46f
2:10pm 6 8 mph 1013.2mb 47f
2:00pm 6
mph
1013.2mb 46f
1:50pm 3 6 mph 1013.2mb 46f
1:40pm 5 6 mph 1013.2mb 46f
1:30pm 3 8 mph 1013.2mb 46f
1:20pm 7
mph
1013.2mb 46f
1:10pm 5 8 mph 1013.2mb 46f
1:00pm 7 8 mph 1013.5mb 46f
12:50pm 5 6 mph 1013.2mb 47f
12:40pm 6
mph
1013.2mb 47f
12:30pm 3 5 mph 1012.9mb 48f
12:20pm 2
mph
1012.9mb 48f
12:10pm 2 5 mph 1013.2mb 48f
12:00pm 3 5 mph 1013.2mb 47f
11:50am 5 6 mph 1013.2mb 48f
11:40am 6 7 mph 1013.5mb 49f
11:30am 6 7 mph 1013.5mb 48f
11:20am 6 7 mph 1013.5mb 47f
11:10am 5 6 mph 1013.2mb 48f
11:00am 5 6 mph 1013.2mb 48f
10:50am 6
mph
1013.2mb 48f
10:40am 6 7 mph 1013.2mb 49f
10:30am 7
mph
1013.2mb 48f
10:20am 6 7 mph 1013.2mb 49f
10:10am 6 7 mph 1013.2mb 48f
10:00am 6
mph
1013.2mb 48f
9:50am 2 3 mph 1013.2mb 48f
9:40am 2 3 mph 1013.2mb 49f
9:30am 2 5 mph 1012.9mb 49f
9:20am 2 3 mph 1012.9mb 49f
9:10am 3 5 mph 1012.9mb 48f
9:00am 3
mph
1012.9mb 48f
8:50am 3 5 mph 1012.9mb 48f
8:40am 3
mph
1012.9mb 48f
8:30am 3 5 mph 1012.5mb 48f
8:20am 3 5 mph 1012.5mb 48f
8:10am 5
mph
1012.5mb 47f
8:00am 3 5 mph 1012.5mb 47f
7:00am 1 2 mph 1012.5mb 49f
6:50am  -  1 mph 1012.5mb 49f
6:40am  -  3 mph 1012.5mb 49f
6:30am 2 3 mph 1012.9mb 49f
6:20am 1 2 mph 1012.5mb 48f
6:10am 2 3 mph 1012.5mb 48f
6:00am 3 7 mph 1012.2mb 48f
5:50am 6 7 mph 1011.9mb 49f
5:40am 2
mph
1011.5mb 49f
5:30am  -  2 mph 1011.5mb 49f
5:20am 1 2 mph 1011.2mb 49f
5:10am  -  2 mph 1011.2mb 49f
5:00am  -  mph 1011.2mb 49f
4:50am  -  1 mph 1010.8mb 49f
4:40am  -  3 mph 1011.2mb 49f
4:30am 2 5 mph 1011.2mb 49f
4:20am 2 5 mph 1011.2mb 49f
4:10am  -  5 mph 1011.5mb 49f
4:00am 1 2 mph 1011.5mb 49f
3:50am  -  2 mph 1011.5mb 49f
3:40am  -  2 mph 1011.2mb 49f
3:30am 1 2 mph 1011.5mb 49f
3:20am 1
mph
1011.2mb 49f
3:10am  -  3 mph 1011.2mb 49f
3:00am  -  3 mph 1011.2mb 49f
2:50am 2 3 mph 1010.8mb 49f
2:40am  -  mph 1010.8mb 50f
2:30am  -  2 mph 1010.8mb 50f
2:20am  -  2 mph 1010.8mb 50f
2:10am  -  2 mph 1010.8mb 50f
2:00am  -  mph 1010.8mb 50f
1:50am  -  1 mph 1010.8mb 50f
1:40am  -  1 mph 1010.8mb 50f
1:30am  -  2 mph 1010.8mb 50f
1:20am 1 2 mph 1010.5mb 50f
1:10am  -  2 mph 1010.5mb 50f
1:00am 1 2 mph 1010.8mb 50f
12:50am  -  3 mph 1010.5mb 50f
12:40am 3 5 mph 1010.5mb 50f
12:30am 2 3 mph 1010.5mb 49f
12:20am 3 5 mph 1010.5mb 49f
12:10am 5 6 mph 1010.5mb 49f
12:00am 5 7 mph 1010.5mb 49f
Thu 05/26 11:50pm 6 7 mph 1010.5mb 49f
11:40pm 6
mph
1010.5mb 49f
11:30pm 5 6 mph 1010.8mb 49f
11:20pm 6
mph
1010.8mb 50f
11:10pm 3 5 mph 1010.5mb 49f
11:00pm 3 5 mph 1010.5mb 49f
10:50pm 5 6 mph 1010.5mb 49f
10:40pm 5 6 mph 1010.5mb 49f
10:30pm 5 6 mph 1010.8mb 49f
10:20pm 6 7 mph 1010.8mb 49f
10:10pm 3 7 mph 1011.2mb 49f
10:00pm 6 7 mph 1011.2mb 49f
9:50pm 3 6 mph 1011.2mb 48f
9:40pm 5 6 mph 1011.2mb 47f
9:30pm 2 5 mph 1011.2mb 47f
9:20pm 5 6 mph 1011.2mb 46f
9:10pm 3 5 mph 1011.2mb 46f
9:00pm 3 5 mph 1011.2mb 46f
8:50pm 2 5 mph 1011.2mb 45f
8:40pm 5 9 mph 1010.8mb 45f
8:30pm 9 10 mph 1010.5mb 45f
8:20pm 7 8 mph 1010.2mb 47f
8:10pm 7 9 mph 1010.2mb 46f
8:00pm 6 8 mph 1009.5mb 48f
7:50pm 8 11 mph 1008.8mb 49f
7:40pm 9 11 mph 1008.1mb 50f
7:30pm 9 10 mph 1008.1mb 50f
7:20pm 6 7 mph 1007.8mb 51f
7:10pm 5 6 mph 1007.8mb 50f
7:00pm 5
mph
1008.1mb 51f
6:50pm 2 5 mph 1008.1mb 51f
6:40pm 3 5 mph 1008.1mb 51f
6:30pm 2 5 mph 1008.5mb 53f
6:20pm 2 3 mph 1008.5mb 53f
6:10pm  -  3 mph 1008.5mb 55f
6:00pm 3 6 mph 1008.5mb 54f
5:50pm 3 7 mph 1008.5mb 56f
5:40pm 3 8 mph 1008.5mb 58f
5:30pm 5 6 mph 1008.8mb 58f
5:20pm 2 6 mph 1008.8mb 66f
5:10pm 5 7 mph 1009.1mb 65f
5:00pm 3 5 mph 1009.1mb 63f
4:50pm 3 5 mph 1008.8mb 60f
4:40pm 3 6 mph 1009.1mb 60f
4:30pm 2 6 mph 1009.1mb 61f
4:20pm 5 7 mph 1009.1mb 58f
4:10pm 3 6 mph 1009.1mb 56f
4:00pm 2 11 mph 1008.8mb 54f
3:50pm 10 11 mph 1008.5mb 53f
3:40pm 7 8 mph 1008.8mb 53f
3:30pm 5 6 mph 1009.1mb 54f